Regional Weather Roundup
Issued by NWS Little Rock, AR

Home | Current Version | Previous Version | Graphics & Text | Print | Product List | Glossary On
Versions: 1 2 3 4 5 6 7 8 9 10 11 12 13 14 15 16 17 18 19 20 21 22 23 24 25 26 27 28 29 30 31 32 33 34 35 36 37 38 39 40 41 42 43 44 45 46 47 48 49 50
000
ASUS44 KLZK 221605
RWRLZK

WEATHER ROUNDUP FOR ARKANSAS
NATIONAL WEATHER SERVICE LITTLE ROCK AR
1100 AM CDT FRI MAY 22 2015

NOTE: "FAIR" INDICATES FEW OR NO CLOUDS BELOW 12,000 FEET WITH NO
SIGNIFICANT WEATHER AND/OR OBSTRUCTIONS TO VISIBILITY.

ARZ001-003-010-029-221700-
NORTHWEST ARKANSAS

CITY           SKY/WX    TMP DP  RH WIND       PRES   REMARKS
FAYETTEVILLE   MOSUNNY   62  48  60 E6        30.27F
FORT SMITH     PTSUNNY   63  47  55 E9        30.26F
HARRISON       SUNNY     61  48  62 SE8       30.29F
BENTONVILLE    PTSUNNY   63  46  55 SE9       30.28F
ROGERS         PTSUNNY   61  48  62 SE8       30.29F
SILOAM SPGS    MOSUNNY   63  46  55 S8        30.28F
HIGHFILL       PTSUNNY   62  49  62 VRB3      30.27F
SPRINGDALE     MOSUNNY   59  48  67 SE5       30.31S
$$

ARZ004-005-016-221700-
NORTH CENTRAL ARKANSAS

CITY           SKY/WX    TMP DP  RH WIND       PRES   REMARKS
BATESVILLE     SUNNY     63  46  55 E8        30.31S
FLIPPIN        SUNNY     63  48  59 E7        30.30S
MTN HOME       MOSUNNY   61  47  59 S6        30.30S
$$

ARZ040-041-221700-
WEST CENTRAL ARKANSAS

CITY           SKY/WX    TMP DP  RH WIND       PRES   REMARKS
MENA           PTSUNNY   63  50  63 E8        30.25F
MOUNT IDA      MOSUNNY   62  48  60 VRB5      30.25F
$$

ARZ009-017-025-026-028-221700-
NORTHEAST ARKANSAS

CITY           SKY/WX    TMP DP  RH WIND       PRES   REMARKS
CORNING          N/A     64  48  55 SE6       30.33R
JONESBORO      SUNNY     62  47  57 VRB5      30.31S
NEWPORT        SUNNY     65  46  50 VRB5      30.33R
WALNUT RIDGE   SUNNY     63  46  55 CALM      30.32S
BLYTHEVILLE    SUNNY     65  47  52 E7        30.31S
$$

ARZ022-023-033-042-044-221700-
CENTRAL ARKANSAS

CITY           SKY/WX    TMP DP  RH WIND       PRES   REMARKS
LITTLE ROCK    MOSUNNY   64  48  56 E8        30.30F
N LITTLE ROCK  MOSUNNY   62  50  65 SE10      30.30F
JACKSONVILLE   SUNNY     64  48  57 VRB7      30.29F
HOT SPRINGS    SUNNY     62  48  60 E6        30.27F
RUSSELLVILLE   SUNNY     62  47  57 VRB7      30.29F
CLINTON        FAIR      63  48  59 E3        30.31F
$$

ARZ036-221700-
EAST ARKANSAS

CITY           SKY/WX    TMP DP  RH WIND       PRES   REMARKS
WEST MEMPHIS   SUNNY     63  48  58 SE7       30.29S
$$

ARZ050-053-066-070-073-221700-
SOUTHWEST ARKANSAS

CITY           SKY/WX    TMP DP  RH WIND       PRES   REMARKS
ARKADELPHIA    FAIR      66  53  63 VRB5      30.28F
CAMDEN         SUNNY     64  48  55 NE6       30.27F
TEXARKANA      SUNNY     62  51  67 E10G17    30.24F
EL DORADO      SUNNY     64  51  62 E9        30.26F
DE QUEEN       MOSUNNY   65  50  58 E13G22    30.23F
$$

ARZ056-057-069-221700-
SOUTHEAST ARKANSAS

CITY           SKY/WX    TMP DP  RH WIND       PRES   REMARKS
PINE BLUFF     SUNNY     64  49  57 E7        30.29F
STUTTGART      SUNNY     63  46  55 E7        30.31S
MONTICELLO     SUNNY     64  48  56 E10       30.28R

$$




USA.gov is the U.S. government's official web portal to all federal, state and local government web resources and services.